Regional Weather Roundup
Issued by NWS

Home | Current Version | Previous Version | Graphics & Text | Print | Product List | Glossary On
Versions: 1 2 3 4 5 6 7 8 9 10 11 12 13 14 15 16 17 18 19 20 21 22 23 24 25 26 27 28 29 30 31 32 33 34 35 36 37 38 39 40 41 42 43 44 45 46 47 48 49 50
000
ASUS43 KMKX 280400
RWRWI

WISCONSIN REGIONAL WEATHER ROUNDUP
NATIONAL WEATHER SERVICE MILWAUKEE/SULLIVAN WI
1000 PM CST THU NOV 27 2014

NOTE: "FAIR" INDICATES FEW OR NO CLOUDS BELOW 12,000 FEET WITH NO
SIGNIFICANT WEATHER AND/OR OBSTRUCTIONS TO VISIBILITY.

WIZ001-002-006>008-014>016-023>028-280500-
NORTHWEST WISCONSIN

CITY           SKY/WX    TMP DP  RH WIND       PRES   REMARKS
SUPERIOR ARPT  PTCLDY     5  -3  69 SW3       30.33R
ASHLAND        PTCLDY    -2  -6  83 CALM      30.32F
HAYWARD        PTCLDY    -2  -7  79 CALM      30.29R
SIREN          MOCLDY     6  -3  67 S5        30.30S WCI  -3
CUMBERLAND     MOCLDY     7  -2  66 SE3       30.27F
RICE LAKE      MOCLDY     4  -2  74 SE5       30.31F WCI  -5
CHETEK         MOCLDY     3  -2  78 CALM      30.31S
LADYSMITH      FAIR       0  -4  85 E3        30.30F
EAU CLAIRE     NOT AVBL
MENOMONIE      CLOUDY     9   0  67 SE6       30.33F WCI  -1
NEW RICHMOND   MOCLDY     8   0  69 S7        30.30F WCI  -3
OSCEOLA        MOCLDY     9   1  68 S7        30.34S WCI  -2
$$

WIZ003>005-009-010-017-018-280500-
NORTH CENTRAL WISCONSIN

CITY           SKY/WX    TMP DP  RH WIND       PRES   REMARKS
MANITOWISH WTR PTCLDY   -12 -17  79 CALM      30.25S
ARBOR VITAE    PTCLDY    -6 -10  80 CALM      30.25S
WOODRUFF       PTCLDY    -6 -10  80 CALM      30.25S
RHINELANDER    PTCLDY    -3  -7  82 CALM      30.25F
EAGLE RIVER    PTCLDY    -7 -13  76 CALM      30.24F
LAND O LAKES   PTCLDY   -13 -18  77 CALM      30.25S
PHILLIPS       MOCLDY    -7 -11  86 CALM      30.26F
TOMAHAWK       PTCLDY   -11 -15  80 CALM      30.28S
MEDFORD        PTCLDY    -3  -7  84 CALM      30.27F
MERRILL        PTCLDY    -5  -8  84 CALM      30.30R
$$

WIZ029-030-035-036-043>047-280500-
CENTRAL WISCONSIN

CITY           SKY/WX    TMP DP  RH WIND       PRES   REMARKS
WAUSAU         MOCLDY     1  -2  87 CALM      30.29F
MOSINEE        CLEAR      1   0  92 CALM      30.31S
MARSHFIELD     PTCLDY     1  -4  79 CALM      30.30F
STEVENS POINT  MOCLDY    -5  -9  84 CALM      30.34R
WAUPACA        PTCLDY     2  -2  83 CALM      30.36F
WAUTOMA        NOT AVBL
WISC RAPIDS    PTCLDY     0  -5  79 CALM      30.35F
CAMP DOUGLAS   NOT AVBL
$$

WIZ011>013-019>022-031-037>040-048>050-280500-
NORTHEAST WISCONSIN

CITY           SKY/WX    TMP DP  RH WIND       PRES   REMARKS
ANTIGO         PTCLDY    -9 -12  85 CALM      30.28S
SHAWANO        MOCLDY     4   0  83 CALM      30.35F
OCONTO         PTCLDY     0  -3  89 CALM      30.36F
STURGEON BAY   PTCLDY    10   0  61 CALM      30.33F
GREEN BAY      PTCLDY     6   2  83 VRB3      30.35F
MANITOWOC      NOT AVBL
APPLETON       CLEAR      3   0  85 W8        30.34F WCI -10
CLINTONVILLE   PTCLDY     1  -2  85 CALM      30.34F
OSHKOSH        PTCLDY     5  -1  76 MISG      30.35F
$$

WIZ032>034-041-042-053>061-280500-
SOUTHWEST WISCONSIN

CITY           SKY/WX    TMP DP  RH WIND       PRES   REMARKS
LA CROSSE      CLOUDY    12   3  67 S5        30.36F WCI   4
SPARTA         MOCLDY     6   3  84 CALM      30.37F
VIROQUA        MOCLDY     9   2  72 S6        30.31F WCI   0
BOSCOBEL       PTCLDY    11   5  77 CALM      30.37F
PRAIRIE DU CHI MOCLDY    12   1  63 E5        30.36F WCI   4
PLATTEVILLE    PTCLDY    11   2  65 CALM      30.36F
$$

WIZ056-057-062-063-064-067-068-280500-
SOUTH CENTRAL WISCONSIN

CITY           SKY/WX    TMP DP  RH WIND       PRES   REMARKS
REEDSBURG      PTCLDY     7   3  84 CALM      30.37S
BARABOO/DELLS  PTCLDY     6   3  87 CALM      30.36S
LONE ROCK      NOT AVBL
MINERAL POINT  PTCLDY    12   3  67 CALM      30.33F
MADISON        CLOUDY    10   5  80 CALM      30.38R
MIDDLETON      PTCLDY    10   5  81 CALM      30.37F
WATERTOWN      PTCLDY     6   4  91 CALM      30.36F
MONROE         PTCLDY    14   7  73 CALM      30.35F
JANESVILLE     PTCLDY    10   9  92 CALM      30.39R
$$

WIZ051-052-058>065-066-070>072-280500-
SOUTHEAST WISCONSIN

CITY           SKY/WX    TMP DP  RH WIND       PRES   REMARKS
MILWAUKEE      PTCLDY    15   7  70 W5        30.38F WCI   8
WAUKESHA       PTCLDY    10   7  85 CALM      30.37F
MILWAUKEE/TIMM PTCLDY    12   7  79 CALM      30.38F
RACINE         PTCLDY    12   6  77 W5        30.40S WCI   4
BURLINGTON     PTCLDY     4   2  91 CALM      30.38S
KENOSHA        PTCLDY     9   6  88 CALM      30.39R
FOND DU LAC    MOCLDY     1  -5  75 SE6       30.36F WCI -10
SHEBOYGAN      PTCLDY     4  -1  80 W3        30.36F
WEST BEND      MOCLDY     9   3  78 CALM      30.36F
JUNEAU         PTCLDY     3   1  90 SW3       30.37F
$$

LSZ147-162-280500-
LAKE SUPERIOR

STATION/POSITION TIME  TEMP    WIND        PRES    WAVE
                       AIR SEA DIR/SP/G            HT/PER
                 (UTC) (F)     (DEG/KT/KT) (MB)    (FT/S)
DEVILS ISLAND    0300   12     220/ 12/ 16 1028.3F
PORT WING        0300    4     140/  2/  3 1027.1
SAXON HARBOR     0300   -1     200/  5/ 29 1027.4F
$$

LMZ867-665-643>646-280500-
LAKE MICHIGAN

STATION/POSITION TIME  TEMP    WIND        PRES    WAVE
                       AIR SEA DIR/SP/G            HT/PER
                 (UTC) (F)     (DEG/KT/KT) (MB)    (FT/S)
CHAMBERS ISLAND  0300   15     310/  8/ 12 1027.8F
N MID LAKE BUOY  0250   19 42  320/ 12/ 17 1028.3R   3/ 4
NORTHPORT PIER   0312   17     330/ 11/ 15 1027.8S
SISTER BAY       0228          360/ 14/ 17   N/A
KEWAUNEE LAKESHO 0300    8     300/  3/  8 1027.2F
SHEBOYGAN LAKESH 0300   12 34  280/  8/ 11 1030.2F
PORT WASHINGTON  0300   13     280/  5/  6 1029.8S
MILWAUKEE LAKESH 0300   16     320/  6/  8   N/A
S MID LAKE BUOY  0250   23 42  290/ 10/ 14 1029.5S   5/ 7
KENOSHA   LAKESH 0300   16     310/  5/  8 1029.1S
$$

TC  - TEMPERATURE IN CELSIUS
VSB - VISIBILITY IN STATUTE MILES
WCI - WIND CHILL INDEX
HX  - HEAT INDEX




USA.gov is the U.S. government's official web portal to all federal, state and local government web resources and services.